This is the latest recevied weather packets stored in our database for station/object EA1IOS-11. If no packets are shown the sender has not sent any weather packets the latest 10 day(s).
| Time | Temp. | Humidity | Pressure | Rain* | Wind** | Luminosity | Snow |
|---|---|---|---|---|---|---|---|
| 1777495226 | 15° C | 94% | 1010.1 hPa | 0 mm | - | - | - |
| 1777493463 | 15° C | 94% | 1009.6 hPa | 0 mm | - | - | - |
| 1777489265 | 15° C | 94% | 1008.7 hPa | 0 mm | - | - | - |
| 1777485617 | 15.56° C | 93% | 1008.8 hPa | 0.25 mm | - | - | - |
| 1777482638 | 15.56° C | 89% | 1008.9 hPa | 0 mm | - | - | - |
| 1777480264 | 15.56° C | 87% | 1008.5 hPa | 0 mm | - | - | - |
| 1777479050 | 15° C | 86% | 1008.6 hPa | 0 mm | - | - | - |
| 1777477226 | 15.56° C | 86% | 1008.1 hPa | 0 mm | - | - | - |
| 1777476072 | 15.56° C | 85% | 1008.1 hPa | 0 mm | - | - | - |
| 1777467617 | 13.89° C | 91% | 1008.8 hPa | 1.02 mm | - | - | - |
| 1777467074 | 13.33° C | 90% | 1008.8 hPa | 1.02 mm | - | - | - |
| 1777465853 | 13.33° C | 91% | 1008.9 hPa | 1.02 mm | - | - | - |
| 1777459839 | 14.44° C | 92% | 1008.9 hPa | 1.27 mm | - | - | - |
| 1777457465 | 15° C | 89% | 1009 hPa | 0 mm | - | - | - |
| 1777451425 | 15° C | 87% | 1009.3 hPa | 0 mm | - | - | - |
| 1777450217 | 15° C | 88% | 1009.3 hPa | 0 mm | - | - | - |
| 1777448464 | 14.44° C | 90% | 1009.6 hPa | 0 mm | - | - | - |
| 1777446652 | 14.44° C | 91% | 1009.5 hPa | 0 mm | - | - | - |
| 1777437066 | 14.44° C | 92% | 1009.7 hPa | 0 mm | - | - | - |
| 1777430459 | 14.44° C | 92% | 1010.5 hPa | 0 mm | - | - | - |
| 1777426230 | 14.44° C | 93% | 1011.3 hPa | 0 mm | - | - | - |
| 1777423269 | 14.44° C | 93% | 1011.9 hPa | 0 mm | - | - | - |
| 1777422061 | 14.44° C | 93% | 1012.1 hPa | 0 mm | - | - | - |
| 1777420248 | 15° C | 92% | 1012.4 hPa | 0 mm | - | - | - |
| 1777411245 | 15° C | 93% | 1013.9 hPa | 0 mm | - | - | - |
* Rain latest hour (hover to see other rain measurements)
** Current wind speed in m/s (hover to see current wind gust speed)